| time (UTC) | temp F | wind direction | speed MPH | gust MPH | rain 1hr in | rain 24hr in | rain mn in | humidity % | barometer mb |
| 20260506213318 | 55 | 40 | 0.0 | 0.0 | 0.00 | 0.20 | 0.20 | 93 | 1014.7 |
| 20260506212816 | 55 | 40 | 0.0 | 0.0 | 0.00 | 0.20 | 0.20 | 93 | 1014.6 |
| 20260506212311 | 55 | 38 | 0.0 | 0.0 | 0.00 | 0.20 | 0.20 | 93 | 1014.7 |
| 20260506211806 | 56 | 47 | 0.0 | 0.0 | 0.00 | 0.20 | 0.20 | 94 | 1014.5 |
| 20260506211303 | 55 | 46 | 0.0 | 0.0 | 0.00 | 0.20 | 0.20 | 94 | 1014.6 |
| 20260506210801 | 55 | 47 | 0.0 | 0.0 | 0.05 | 0.20 | 0.20 | 94 | 1014.7 |
| 20260506210257 | 55 | 47 | 0.0 | 0.0 | 0.05 | 0.20 | 0.20 | 94 | 1014.5 |
| 20260506205754 | 55 | 47 | 0.0 | 0.0 | 0.07 | 0.19 | 0.19 | 94 | 1014.6 |
| 20260506205250 | 55 | 47 | 0.0 | 0.0 | 0.07 | 0.19 | 0.19 | 94 | 1014.8 |
| 20260506204746 | 55 | 47 | 0.0 | 0.0 | 0.05 | 0.18 | 0.18 | 93 | 1014.5 |
| 20260506204244 | 55 | 47 | 0.0 | 0.0 | 0.05 | 0.18 | 0.18 | 92 | 1014.9 |
| 20260506203742 | 55 | 47 | 0.0 | 0.0 | 0.00 | 0.17 | 0.17 | 91 | 1015.0 |
| 20260506203239 | 55 | 47 | 0.0 | 0.0 | 0.07 | 0.17 | 0.17 | 91 | 1015.0 |
| 20260506202736 | 55 | 47 | 0.0 | 0.0 | 0.07 | 0.17 | 0.17 | 91 | 1014.8 |
| 20260506202232 | 55 | 46 | 0.0 | 0.0 | 0.00 | 0.16 | 0.16 | 91 | 1015.0 |
| 20260506201729 | 55 | 46 | 0.0 | 0.0 | 0.00 | 0.16 | 0.16 | 91 | 1015.1 |
| 20260506201226 | 56 | 46 | 0.0 | 0.0 | 0.00 | 0.16 | 0.16 | 92 | 1014.9 |
| 20260506200723 | 56 | 46 | 0.0 | 0.0 | 0.05 | 0.16 | 0.16 | 91 | 1014.7 |
| 20260506200220 | 56 | 46 | 0.0 | 0.0 | 0.05 | 0.16 | 0.16 | 91 | 1014.5 |
| 20260506195716 | 56 | 45 | 0.0 | 0.0 | 0.00 | 0.15 | 0.15 | 90 | 1014.8 |
| 20260506195213 | 56 | 44 | 0.0 | 0.0 | 0.07 | 0.15 | 0.15 | 90 | 1015.3 |
| 20260506194710 | 56 | 44 | 0.0 | 0.0 | 0.07 | 0.15 | 0.15 | 89 | 1015.4 |
| 20260506194206 | 56 | 44 | 0.0 | 0.0 | 0.00 | 0.14 | 0.14 | 87 | 1015.5 |
| 20260506193704 | 56 | 43 | 0.0 | 0.0 | 0.05 | 0.14 | 0.14 | 85 | 1015.8 |
| 20260506193201 | 56 | 56 | 0.0 | 0.0 | 0.05 | 0.14 | 0.14 | 83 | 1016.0 |
| 20260506192658 | 57 | 63 | 0.0 | 0.0 | 0.00 | 0.13 | 0.13 | 82 | 1015.4 |
| 20260506192154 | 56 | 52 | 0.0 | 0.0 | 0.00 | 0.13 | 0.13 | 80 | 1015.4 |
| 20260506191651 | 56 | 60 | 0.0 | 0.0 | 0.00 | 0.13 | 0.13 | 80 | 1015.5 |
| 20260506191147 | 56 | 70 | 0.0 | 1.0 | 0.00 | 0.13 | 0.13 | 80 | 1014.9 |
| 20260506190645 | 57 | 61 | 0.0 | 0.0 | 0.00 | 0.13 | 0.13 | 80 | 1014.7 |
| 20260506190141 | 57 | 54 | 0.0 | 0.0 | 0.00 | 0.13 | 0.13 | 80 | 1015.3 |
| 20260506185638 | 57 | 43 | 0.0 | 0.0 | 0.00 | 0.13 | 0.13 | 78 | 1015.6 |
| 20260506185134 | 57 | 42 | 0.0 | 0.0 | 0.00 | 0.13 | 0.13 | 78 | 1014.9 |
| 20260506184632 | 57 | 57 | 0.0 | 0.0 | 0.00 | 0.13 | 0.13 | 78 | 1014.4 |
| 20260506184129 | 57 | 43 | 1.0 | 1.0 | 0.00 | 0.13 | 0.13 | 78 | 1014.5 |
| 20260506183626 | 57 | 53 | 0.0 | 0.0 | 0.00 | 0.13 | 0.13 | 78 | 1014.6 |
| 20260506183121 | 57 | 68 | 1.0 | 1.0 | 0.00 | 0.13 | 0.13 | 79 | 1015.1 |
| 20260506182619 | 57 | 46 | 0.0 | 0.0 | 0.00 | 0.13 | 0.13 | 81 | 1015.3 |
| 20260506182116 | 56 | 44 | 1.0 | 1.0 | 0.00 | 0.13 | 0.13 | 79 | 1015.2 |
| 20260506181614 | 56 | 40 | 0.0 | 0.0 | 0.00 | 0.13 | 0.13 | 79 | 1015.1 |
| 20260506181111 | 56 | 20 | 1.0 | 2.0 | 0.00 | 0.13 | 0.13 | 81 | 1015.1 |
| 20260506180608 | 57 | 31 | 2.0 | 2.0 | 0.00 | 0.13 | 0.13 | 79 | 1015.1 |
| 20260506180104 | 57 | 124 | 2.0 | 2.0 | 0.00 | 0.13 | 0.13 | 79 | 1015.0 |
| 20260506175600 | 57 | 43 | 0.0 | 1.0 | 0.00 | 0.13 | 0.13 | 78 | 1014.5 |
| 20260506175056 | 57 | 35 | 1.0 | 2.0 | 0.00 | 0.13 | 0.13 | 79 | 1014.6 |
| 20260506174556 | 57 | 68 | 0.0 | 1.0 | 0.00 | 0.13 | 0.13 | 79 | 1014.6 |
| 20260506174051 | 57 | 78 | 1.0 | 1.0 | 0.00 | 0.13 | 0.13 | 79 | 1015.0 |
| 20260506173549 | 57 | 52 | 0.0 | 1.0 | 0.00 | 0.13 | 0.13 | 77 | 1015.3 |
| 20260506173046 | 58 | 69 | 1.0 | 1.0 | 0.00 | 0.13 | 0.13 | 75 | 1015.4 |
| 20260506172543 | 58 | 64 | 0.0 | 0.0 | 0.00 | 0.13 | 0.13 | 77 | 1015.1 |
| 20260506172039 | 58 | 49 | 0.0 | 0.0 | 0.00 | 0.13 | 0.13 | 77 | 1015.0 |
| 20260506171537 | 57 | 39 | 1.0 | 1.0 | 0.00 | 0.13 | 0.13 | 79 | 1014.8 |
| 20260506171034 | 56 | 41 | 1.0 | 1.0 | 0.00 | 0.13 | 0.13 | 81 | 1015.1 |
| 20260506170532 | 56 | 40 | 0.0 | 1.0 | 0.00 | 0.13 | 0.13 | 80 | 1015.1 |
| 20260506170029 | 56 | 51 | 0.0 | 0.0 | 0.00 | 0.13 | 0.13 | 80 | 1014.9 |
| 20260506165528 | 56 | 57 | 0.0 | 0.0 | 0.00 | 0.13 | 0.13 | 80 | 1014.9 |
| 20260506165023 | 57 | 37 | 1.0 | 2.0 | 0.00 | 0.13 | 0.13 | 78 | 1015.0 |
| 20260506164520 | 57 | 41 | 1.0 | 1.0 | 0.00 | 0.13 | 0.13 | 78 | 1015.0 |
| 20260506164018 | 57 | 33 | 1.0 | 1.0 | 0.00 | 0.13 | 0.13 | 77 | 1015.0 |
| 20260506163514 | 57 | 40 | 1.0 | 1.0 | 0.00 | 0.13 | 0.13 | 77 | 1014.6 |
| 20260506163010 | 57 | 73 | 1.0 | 2.0 | 0.00 | 0.13 | 0.13 | 77 | 1014.5 |
| 20260506162506 | 57 | 47 | 1.0 | 2.0 | 0.00 | 0.13 | 0.13 | 78 | 1014.6 |
| 20260506162003 | 57 | 39 | 2.0 | 2.0 | 0.00 | 0.13 | 0.13 | 77 | 1014.5 |
| 20260506161501 | 56 | 55 | 1.0 | 1.0 | 0.00 | 0.13 | 0.13 | 77 | 1014.3 |
| 20260506160958 | 56 | 17 | 1.0 | 1.0 | 0.00 | 0.13 | 0.13 | 78 | 1014.5 |
| 20260506160455 | 56 | 56 | 0.0 | 0.0 | 0.00 | 0.13 | 0.13 | 78 | 1014.7 |
| 20260506155952 | 56 | 46 | 0.0 | 1.0 | 0.00 | 0.13 | 0.13 | 79 | 1014.8 |
| 20260506155450 | 55 | 62 | 0.0 | 1.0 | 0.00 | 0.13 | 0.13 | 81 | 1014.9 |
| 20260506153616 | 55 | 53 | 0.0 | 0.0 | 0.00 | 0.13 | 0.13 | 81 | 1015.1 |
| 20260506153114 | 54 | 56 | 0.0 | 0.0 | 0.00 | 0.13 | 0.13 | 81 | 1015.2 |
| 20260506152611 | 54 | 42 | 0.0 | 0.0 | 0.00 | 0.13 | 0.13 | 82 | 1015.6 |
| 20260506152109 | 54 | 47 | 0.0 | 0.0 | 0.00 | 0.13 | 0.13 | 81 | 1015.3 |
| 20260506151607 | 54 | 52 | 0.0 | 0.0 | 0.00 | 0.13 | 0.13 | 82 | 1015.0 |
| 20260506151103 | 54 | 55 | 0.0 | 0.0 | 0.00 | 0.13 | 0.13 | 82 | 1014.7 |
| 20260506150600 | 54 | 54 | 0.0 | 0.0 | 0.00 | 0.13 | 0.13 | 81 | 1014.7 |
| 20260506150057 | 53 | 54 | 0.0 | 0.0 | 0.00 | 0.13 | 0.13 | 83 | 1014.8 |
| 20260506145554 | 53 | 37 | 1.0 | 1.0 | 0.00 | 0.13 | 0.13 | 82 | 1014.8 |
| 20260506145051 | 53 | 58 | 1.0 | 1.0 | 0.00 | 0.13 | 0.13 | 83 | 1014.7 |
| 20260506144548 | 52 | 41 | 0.0 | 0.0 | 0.00 | 0.13 | 0.13 | 85 | 1014.7 |
| 20260506144045 | 51 | 36 | 2.0 | 2.0 | 0.00 | 0.13 | 0.13 | 85 | 1014.4 |
| 20260506143543 | 51 | 40 | 1.0 | 2.0 | 0.00 | 0.13 | 0.13 | 84 | 1014.4 |
| 20260506143041 | 51 | 37 | 1.0 | 2.0 | 0.00 | 0.13 | 0.13 | 86 | 1014.2 |
| 20260506142538 | 51 | 60 | 0.0 | 0.0 | 0.00 | 0.13 | 0.13 | 86 | 1014.6 |
| 20260506142037 | 51 | 55 | 0.0 | 0.0 | 0.00 | 0.13 | 0.13 | 86 | 1014.4 |
| 20260506141534 | 50 | 54 | 0.0 | 0.0 | 0.00 | 0.13 | 0.13 | 87 | 1014.2 |
| 20260506141032 | 50 | 53 | 0.0 | 0.0 | 0.00 | 0.13 | 0.13 | 87 | 1014.2 |
| 20260506140529 | 50 | 53 | 0.0 | 0.0 | 0.00 | 0.13 | 0.13 | 87 | 1013.8 |
| 20260506140026 | 50 | 56 | 0.0 | 1.0 | 0.00 | 0.13 | 0.13 | 88 | 1013.8 |
| 20260506135523 | 50 | 71 | 2.0 | 3.0 | 0.00 | 0.13 | 0.13 | 89 | 1013.9 |
| 20260506135019 | 50 | 59 | 0.0 | 0.0 | 0.00 | 0.13 | 0.13 | 89 | 1013.7 |
| 20260506134515 | 50 | 52 | 0.0 | 0.0 | 0.00 | 0.13 | 0.13 | 89 | 1013.7 |
| 20260506134012 | 50 | 68 | 1.0 | 1.0 | 0.00 | 0.13 | 0.13 | 89 | 1013.5 |
| 20260506133509 | 49 | 55 | 0.0 | 0.0 | 0.00 | 0.13 | 0.13 | 90 | 1013.5 |
| 20260506133006 | 49 | 45 | 0.0 | 1.0 | 0.00 | 0.13 | 0.13 | 90 | 1013.5 |
| 20260506132503 | 49 | 42 | 1.0 | 1.0 | 0.00 | 0.13 | 0.13 | 91 | 1013.2 |
| 20260506132000 | 49 | 45 | 0.0 | 0.0 | 0.00 | 0.13 | 0.13 | 91 | 1013.2 |
| 20260506131457 | 49 | 51 | 1.0 | 2.0 | 0.00 | 0.13 | 0.13 | 91 | 1013.0 |
| 20260506130954 | 49 | 351 | 1.0 | 1.0 | 0.00 | 0.13 | 0.13 | 92 | 1013.3 |
| 20260506130450 | 49 | 67 | 1.0 | 1.0 | 0.00 | 0.13 | 0.13 | 92 | 1013.4 |
| 20260506125948 | 48 | 46 | 0.0 | 1.0 | 0.00 | 0.13 | 0.13 | 92 | 1013.4 |
| 20260506125446 | 48 | 42 | 1.0 | 1.0 | 0.00 | 0.13 | 0.13 | 92 | 1013.0 |
| 20260506124944 | 48 | 65 | 1.0 | 1.0 | 0.00 | 0.13 | 0.13 | 94 | 1013.2 |
| 20260506124441 | 48 | 66 | 0.0 | 1.0 | 0.00 | 0.13 | 0.13 | 95 | 1012.6 |
| 20260506123939 | 48 | 77 | 1.0 | 1.0 | 0.00 | 0.13 | 0.13 | 96 | 1012.7 |
| 20260506123437 | 48 | 44 | 1.0 | 1.0 | 0.00 | 0.13 | 0.13 | 96 | 1012.7 |
| 20260506122934 | 48 | 56 | 1.0 | 1.0 | 0.00 | 0.13 | 0.13 | 96 | 1012.2 |
| 20260506122431 | 48 | 56 | 0.0 | 0.0 | 0.00 | 0.13 | 0.13 | 97 | 1012.3 |
| 20260506121929 | 48 | 57 | 0.0 | 0.0 | 0.00 | 0.13 | 0.13 | 97 | 1011.9 |
| 20260506121426 | 49 | 42 | 0.0 | 1.0 | 0.00 | 0.13 | 0.13 | 97 | 1012.0 |
| 20260506120923 | 49 | 82 | 0.0 | 0.0 | 0.00 | 0.13 | 0.13 | 97 | 1012.1 |
| 20260506120420 | 49 | 55 | 0.0 | 0.0 | 0.00 | 0.13 | 0.13 | 97 | 1012.1 |
| 20260506115917 | 49 | 50 | 0.0 | 0.0 | 0.00 | 0.13 | 0.13 | 97 | 1011.9 |
| 20260506115415 | 49 | 40 | 1.0 | 1.0 | 0.00 | 0.13 | 0.13 | 97 | 1011.9 |
| 20260506114914 | 49 | 41 | 1.0 | 1.0 | 0.00 | 0.13 | 0.13 | 97 | 1012.1 |
| 20260506114411 | 49 | 53 | 0.0 | 0.0 | 0.00 | 0.13 | 0.13 | 97 | 1011.8 |
| 20260506113910 | 49 | 45 | 0.0 | 0.0 | 0.00 | 0.13 | 0.13 | 97 | 1012.0 |
| 20260506113407 | 49 | 62 | 2.0 | 2.0 | 0.00 | 0.13 | 0.13 | 97 | 1011.7 |
| 20260506112903 | 50 | 51 | 0.0 | 0.0 | 0.00 | 0.13 | 0.13 | 97 | 1012.1 |
| 20260506112401 | 50 | 56 | 0.0 | 0.0 | 0.00 | 0.13 | 0.13 | 98 | 1011.9 |
| 20260506111858 | 50 | 44 | 0.0 | 0.0 | 0.00 | 0.13 | 0.13 | 98 | 1011.9 |
| 20260506111356 | 49 | 56 | 0.0 | 0.0 | 0.00 | 0.13 | 0.13 | 98 | 1011.7 |
| 20260506110853 | 50 | 59 | 0.0 | 0.0 | 0.00 | 0.13 | 0.13 | 98 | 1011.9 |
| 20260506110350 | 50 | 59 | 1.0 | 1.0 | 0.00 | 0.13 | 0.13 | 98 | 1011.9 |
| 20260506105847 | 50 | 68 | 1.0 | 1.0 | 0.00 | 0.13 | 0.13 | 98 | 1011.8 |
| 20260506105343 | 50 | 58 | 0.0 | 0.0 | 0.00 | 0.13 | 0.13 | 98 | 1011.5 |
| 20260506104841 | 50 | 55 | 0.0 | 0.0 | 0.00 | 0.13 | 0.13 | 98 | 1011.9 |
| 20260506104338 | 50 | 55 | 0.0 | 0.0 | 0.00 | 0.13 | 0.13 | 98 | 1011.8 |
| 20260506103836 | 50 | 54 | 0.0 | 0.0 | 0.00 | 0.13 | 0.13 | 98 | 1011.7 |
| 20260506103333 | 50 | 58 | 0.0 | 0.0 | 0.00 | 0.13 | 0.13 | 98 | 1011.4 |
| 20260506102831 | 50 | 59 | 0.0 | 0.0 | 0.00 | 0.13 | 0.13 | 98 | 1011.2 |
| 20260506102328 | 50 | 55 | 0.0 | 0.0 | 0.00 | 0.13 | 0.13 | 98 | 1011.3 |
| 20260506101825 | 50 | 51 | 0.0 | 0.0 | 0.00 | 0.13 | 0.13 | 98 | 1011.1 |
| 20260506101321 | 50 | 57 | 0.0 | 0.0 | 0.00 | 0.13 | 0.13 | 98 | 1010.8 |
| 20260506100820 | 50 | 60 | 0.0 | 0.0 | 0.00 | 0.13 | 0.13 | 98 | 1011.0 |
| 20260506100318 | 50 | 55 | 0.0 | 0.0 | 0.00 | 0.13 | 0.13 | 98 | 1011.0 |
| 20260506095816 | 50 | 38 | 0.0 | 0.0 | 0.00 | 0.13 | 0.13 | 98 | 1011.1 |
| 20260506095312 | 50 | 52 | 0.0 | 0.0 | 0.00 | 0.13 | 0.13 | 98 | 1011.2 |
| 20260506094809 | 50 | 48 | 0.0 | 0.0 | 0.00 | 0.13 | 0.13 | 98 | 1010.9 |
| 20260506094308 | 50 | 51 | 0.0 | 0.0 | 0.00 | 0.13 | 0.13 | 98 | 1011.0 |
| 20260506093805 | 50 | 48 | 1.0 | 1.0 | 0.00 | 0.13 | 0.13 | 98 | 1010.6 |
| 20260506093302 | 50 | 57 | 0.0 | 1.0 | 0.00 | 0.13 | 0.13 | 98 | 1011.0 |
| 20260506092800 | 50 | 47 | 0.0 | 1.0 | 0.00 | 0.13 | 0.13 | 98 | 1010.8 |
| 20260506092258 | 51 | 47 | 0.0 | 0.0 | 0.00 | 0.13 | 0.13 | 98 | 1010.7 |
| 20260506091755 | 51 | 63 | 0.0 | 1.0 | 0.00 | 0.13 | 0.13 | 98 | 1010.8 |
| 20260506091252 | 51 | 39 | 0.0 | 1.0 | 0.00 | 0.13 | 0.13 | 98 | 1010.5 |
| 20260506090750 | 51 | 38 | 2.0 | 2.0 | 0.00 | 0.13 | 0.13 | 98 | 1010.5 |
| 20260506090247 | 50 | 44 | 0.0 | 0.0 | 0.00 | 0.13 | 0.13 | 98 | 1009.9 |
| 20260506085744 | 50 | 39 | 1.0 | 1.0 | 0.00 | 0.13 | 0.13 | 98 | 1010.0 |
| 20260506085240 | 50 | 40 | 0.0 | 0.0 | 0.00 | 0.13 | 0.13 | 98 | 1010.0 |
| 20260506084736 | 50 | 54 | 0.0 | 1.0 | 0.00 | 0.13 | 0.13 | 98 | 1009.8 |
| 20260506084233 | 50 | 52 | 0.0 | 0.0 | 0.00 | 0.13 | 0.13 | 98 | 1009.6 |
| 20260506083730 | 50 | 63 | 0.0 | 0.0 | 0.00 | 0.13 | 0.13 | 98 | 1009.7 |
| 20260506083228 | 50 | 47 | 0.0 | 1.0 | 0.07 | 0.13 | 0.13 | 98 | 1009.9 |
| 20260506082725 | 50 | 46 | 1.0 | 1.0 | 0.07 | 0.13 | 0.13 | 98 | 1010.1 |
| 20260506082220 | 50 | 64 | 0.0 | 0.0 | 0.00 | 0.12 | 0.12 | 98 | 1010.0 |
| 20260506081718 | 50 | 44 | 0.0 | 0.0 | 0.00 | 0.12 | 0.12 | 98 | 1009.6 |
| 20260506081215 | 50 | 44 | 1.0 | 1.0 | 0.00 | 0.12 | 0.12 | 98 | 1009.5 |
| 20260506080714 | 50 | 57 | 0.0 | 1.0 | 0.00 | 0.12 | 0.12 | 98 | 1009.9 |
| 20260506080210 | 50 | 83 | 1.0 | 1.0 | 0.00 | 0.12 | 0.12 | 98 | 1009.6 |
| 20260506073154 | 51 | 24 | 2.0 | 3.0 | 0.00 | 0.12 | 0.12 | 98 | 1009.8 |
| 20260506072650 | 51 | 29 | 1.0 | 3.0 | 0.00 | 0.12 | 0.12 | 98 | 1009.6 |
| 20260506072148 | 51 | 70 | 1.0 | 1.0 | 0.07 | 0.12 | 0.12 | 98 | 1010.4 |
| 20260506071645 | 51 | 45 | 0.0 | 1.0 | 0.07 | 0.12 | 0.12 | 98 | 1009.6 |
| 20260506071143 | 51 | 58 | 0.0 | 0.0 | 0.00 | 0.11 | 0.11 | 98 | 1009.9 |
| 20260506070640 | 51 | 54 | 0.0 | 0.0 | 0.00 | 0.11 | 0.11 | 98 | 1010.0 |
| 20260506070137 | 51 | 42 | 1.0 | 1.0 | 0.00 | 0.11 | 0.11 | 98 | 1009.9 |
| 20260506062114 | 52 | 53 | 0.0 | 0.0 | 0.00 | 0.08 | 0.08 | 98 | 1008.9 |
| 20260506061610 | 52 | 47 | 1.0 | 1.0 | 0.24 | 0.08 | 0.08 | 98 | 1008.7 |
| 20260506061108 | 52 | 43 | 0.0 | 0.0 | 0.24 | 0.08 | 0.08 | 98 | 1009.2 |
| 20260506060606 | 52 | 77 | 1.0 | 2.0 | 0.12 | 0.05 | 0.05 | 98 | 1009.1 |
| 20260506051035 | 53 | 70 | 1.0 | 1.0 | 0.00 | 0.00 | 0.00 | 97 | 1008.1 |
| 20260506050533 | 53 | 75 | 0.0 | 0.0 | 0.00 | 0.00 | 0.00 | 98 | 1008.5 |
| 20260506045023 | 53 | 45 | 1.0 | 1.0 | 0.00 | 1.01 | 1.01 | 97 | 1008.4 |
| 20260506044521 | 54 | 42 | 1.0 | 1.0 | 0.00 | 1.01 | 1.01 | 97 | 1008.3 |
| 20260506044018 | 54 | 58 | 0.0 | 1.0 | 0.07 | 1.01 | 1.01 | 97 | 1008.1 |
| 20260506043515 | 54 | 44 | 1.0 | 1.0 | 0.14 | 1.01 | 1.01 | 97 | 1008.2 |
| 20260506043013 | 54 | 53 | 0.0 | 0.0 | 0.19 | 1.00 | 1.00 | 96 | 1008.0 |
| 20260506042512 | 55 | 76 | 1.0 | 1.0 | 0.59 | 0.99 | 0.99 | 96 | 1008.1 |
| 20260506042010 | 57 | 64 | 0.0 | 0.0 | 0.66 | 0.98 | 0.98 | 96 | 1008.4 |
| 20260506041508 | 57 | 33 | 2.0 | 2.0 | 0.66 | 0.89 | 0.89 | 96 | 1008.4 |
| 20260506041004 | 58 | 58 | 0.0 | 0.0 | 0.59 | 0.86 | 0.86 | 96 | 1008.0 |
| 20260506040502 | 58 | 41 | 1.0 | 1.0 | 0.54 | 0.80 | 0.80 | 96 | 1007.9 |
| 20260506035958 | 59 | 72 | 0.0 | 0.0 | 0.42 | 0.76 | 0.76 | 96 | 1007.7 |
| 20260506035455 | 60 | 35 | 1.0 | 1.0 | 0.19 | 0.72 | 0.72 | 95 | 1008.3 |
| 20260506034951 | 60 | 49 | 0.0 | 1.0 | 0.07 | 0.70 | 0.70 | 95 | 1007.5 |
| 20260506034449 | 62 | 46 | 1.0 | 1.0 | 0.05 | 0.69 | 0.69 | 94 | 1007.5 |
| 20260506033946 | 63 | 12 | 2.0 | 2.0 | 0.12 | 0.69 | 0.69 | 95 | 1007.6 |
| 20260506033444 | 65 | 348 | 1.0 | 2.0 | 0.31 | 0.68 | 0.68 | 95 | 1007.5 |
| 20260506032940 | 66 | 24 | 1.0 | 2.0 | 1.13 | 0.67 | 0.67 | 96 | 1007.2 |
| 20260506032437 | 66 | 32 | 2.0 | 2.0 | 0.97 | 0.64 | 0.64 | 95 | 1006.5 |
| 20260506031933 | 66 | 49 | 0.0 | 0.0 | 0.12 | 0.49 | 0.49 | 95 | 1007.3 |
| 20260506031431 | 66 | 261 | 2.0 | 3.0 | 0.07 | 0.48 | 0.48 | 94 | 1006.4 |
| 20260506030929 | 66 | 33 | 1.0 | 2.0 | 0.00 | 0.47 | 0.47 | 95 | 1006.2 |
| 20260506030427 | 66 | 47 | 1.0 | 1.0 | 0.00 | 0.47 | 0.47 | 96 | 1006.3 |
| 20260506025923 | 65 | 277 | 3.0 | 6.0 | 0.00 | 0.47 | 0.47 | 96 | 1006.4 |
| 20260506025420 | 65 | 51 | 1.0 | 1.0 | 0.00 | 0.47 | 0.47 | 96 | 1006.0 |
| 20260506024917 | 65 | 257 | 2.0 | 3.0 | 0.00 | 0.47 | 0.47 | 97 | 1006.1 |
| 20260506024414 | 65 | 43 | 3.0 | 3.0 | 0.00 | 0.47 | 0.47 | 97 | 1006.2 |
| 20260506023909 | 65 | 79 | 1.0 | 1.0 | 0.00 | 0.47 | 0.47 | 97 | 1006.0 |
| 20260506023407 | 64 | 249 | 1.0 | 2.0 | 0.00 | 0.47 | 0.47 | 97 | 1006.3 |
| 20260506022903 | 64 | 56 | 0.0 | 0.0 | 0.00 | 0.47 | 0.47 | 97 | 1006.2 |
| 20260506022401 | 64 | 55 | 0.0 | 1.0 | 0.00 | 0.47 | 0.47 | 97 | 1006.3 |
| 20260506021859 | 64 | 57 | 0.0 | 1.0 | 0.00 | 0.47 | 0.47 | 97 | 1006.2 |
| 20260506021355 | 64 | 71 | 1.0 | 1.0 | 0.00 | 0.47 | 0.47 | 97 | 1006.3 |
| 20260506020852 | 64 | 30 | 2.0 | 2.0 | 0.00 | 0.47 | 0.47 | 98 | 1006.3 |
| 20260506020350 | 64 | 65 | 1.0 | 1.0 | 0.00 | 0.47 | 0.47 | 98 | 1006.2 |
| 20260506015847 | 64 | 17 | 1.0 | 1.0 | 0.00 | 0.47 | 0.47 | 98 | 1006.3 |
| 20260506015345 | 64 | 30 | 1.0 | 2.0 | 0.00 | 0.47 | 0.47 | 98 | 1006.1 |
| 20260506014841 | 64 | 62 | 0.0 | 0.0 | 0.00 | 0.47 | 0.47 | 98 | 1006.2 |
| 20260506014338 | 64 | 331 | 1.0 | 1.0 | 0.00 | 0.47 | 0.47 | 98 | 1006.3 |
| 20260506013835 | 64 | 36 | 0.0 | 0.0 | 0.00 | 0.47 | 0.47 | 98 | 1006.1 |
| 20260506013333 | 64 | 58 | 2.0 | 2.0 | 0.00 | 0.47 | 0.47 | 98 | 1005.9 |
| 20260506012829 | 64 | 6 | 0.0 | 0.0 | 0.00 | 0.47 | 0.47 | 98 | 1006.0 |
| 20260506012326 | 64 | 301 | 2.0 | 2.0 | 0.00 | 0.47 | 0.47 | 98 | 1006.4 |
| 20260506011823 | 64 | 38 | 0.0 | 1.0 | 0.00 | 0.47 | 0.47 | 98 | 1006.4 |
| 20260506011320 | 63 | 302 | 2.0 | 2.0 | 0.00 | 0.47 | 0.47 | 98 | 1006.2 |
| 20260506010817 | 63 | 38 | 1.0 | 1.0 | 0.00 | 0.47 | 0.47 | 98 | 1006.0 |
| 20260506010315 | 63 | 57 | 0.0 | 1.0 | 0.00 | 0.47 | 0.47 | 98 | 1006.0 |
| 20260506005812 | 63 | 61 | 0.0 | 0.0 | 0.00 | 0.47 | 0.47 | 98 | 1006.1 |
| 20260506005308 | 63 | 84 | 1.0 | 2.0 | 0.00 | 0.47 | 0.47 | 98 | 1006.1 |
| 20260506004805 | 63 | 56 | 0.0 | 0.0 | 0.00 | 0.47 | 0.47 | 98 | 1006.0 |
| 20260506004302 | 63 | 54 | 0.0 | 0.0 | 0.05 | 0.47 | 0.47 | 98 | 1006.2 |
| 20260506003759 | 63 | 279 | 2.0 | 2.0 | 0.05 | 0.47 | 0.47 | 98 | 1006.2 |
| 20260506003255 | 63 | 81 | 1.0 | 2.0 | 0.00 | 0.46 | 0.46 | 98 | 1006.4 |
| 20260506002751 | 63 | 61 | 0.0 | 1.0 | 0.00 | 0.46 | 0.46 | 98 | 1006.4 |
| 20260506002247 | 63 | 49 | 0.0 | 0.0 | 0.07 | 0.46 | 0.46 | 98 | 1006.7 |
| 20260506001743 | 63 | 58 | 0.0 | 0.0 | 0.07 | 0.46 | 0.46 | 98 | 1006.5 |
| 20260506001241 | 63 | 61 | 0.0 | 1.0 | 0.00 | 0.45 | 0.45 | 98 | 1006.4 |
| 20260506000737 | 63 | 45 | 0.0 | 1.0 | 0.00 | 0.45 | 0.45 | 98 | 1006.5 |
| 20260506000235 | 63 | 38 | 0.0 | 1.0 | 0.00 | 0.45 | 0.45 | 98 | 1006.4 |
| 20260505235732 | 63 | 45 | 0.0 | 0.0 | 0.00 | 0.45 | 0.45 | 98 | 1006.4 |
| 20260505235230 | 63 | 31 | 1.0 | 2.0 | 0.00 | 0.45 | 0.45 | 98 | 1006.5 |
| 20260505234726 | 63 | 68 | 0.0 | 1.0 | 0.05 | 0.45 | 0.45 | 98 | 1006.6 |
| 20260505234224 | 63 | 53 | 1.0 | 2.0 | 0.05 | 0.45 | 0.45 | 98 | 1006.9 |
| 20260505233720 | 63 | 67 | 0.0 | 0.0 | 0.00 | 0.44 | 0.44 | 98 | 1006.9 |
| 20260505233218 | 63 | 123 | 2.0 | 2.0 | 0.00 | 0.44 | 0.44 | 98 | 1006.9 |
| 20260505232715 | 63 | 323 | 1.0 | 2.0 | 0.00 | 0.44 | 0.44 | 97 | 1006.9 |
| 20260505232213 | 63 | 36 | 0.0 | 1.0 | 0.00 | 0.44 | 0.44 | 97 | 1006.9 |
| 20260505231709 | 63 | 44 | 2.0 | 2.0 | 0.00 | 0.44 | 0.44 | 97 | 1006.9 |
| 20260505231208 | 63 | 65 | 1.0 | 2.0 | 0.00 | 0.44 | 0.44 | 97 | 1006.9 |
| 20260505230706 | 63 | 145 | 1.0 | 3.0 | 0.00 | 0.44 | 0.44 | 97 | 1007.2 |
| 20260505230202 | 63 | 79 | 1.0 | 2.0 | 0.00 | 0.44 | 0.44 | 97 | 1007.4 |
| 20260505225659 | 63 | 37 | 0.0 | 1.0 | 0.00 | 0.44 | 0.44 | 97 | 1007.0 |
| 20260505225155 | 64 | 277 | 2.0 | 3.0 | 0.07 | 0.44 | 0.44 | 97 | 1007.0 |
| 20260505224651 | 63 | 301 | 4.0 | 4.0 | 0.07 | 0.44 | 0.44 | 97 | 1006.9 |
| 20260505224149 | 63 | 54 | 1.0 | 2.0 | 0.00 | 0.43 | 0.43 | 97 | 1007.0 |
| 20260505223646 | 64 | 26 | 1.0 | 1.0 | 0.05 | 0.43 | 0.43 | 97 | 1007.2 |
| 20260505223142 | 64 | 11 | 1.0 | 1.0 | 0.05 | 0.43 | 0.43 | 97 | 1007.2 |
| 20260505222638 | 63 | 153 | 2.0 | 3.0 | 0.00 | 0.42 | 0.42 | 97 | 1007.4 |
| 20260505222135 | 63 | 346 | 2.0 | 2.0 | 0.00 | 0.42 | 0.42 | 97 | 1007.4 |
| 20260505221632 | 63 | 12 | 2.0 | 3.0 | 0.07 | 0.42 | 0.42 | 97 | 1007.5 |
| 20260505221128 | 63 | 223 | 2.0 | 6.0 | 0.07 | 0.42 | 0.42 | 97 | 1007.7 |
| 20260505220626 | 63 | 236 | 3.0 | 4.0 | 0.05 | 0.41 | 0.41 | 97 | 1007.5 |
| 20260505220124 | 63 | 317 | 2.0 | 2.0 | 0.05 | 0.41 | 0.41 | 97 | 1007.4 |
| 20260505215621 | 63 | 38 | 2.0 | 3.0 | 0.00 | 0.40 | 0.40 | 97 | 1007.7 |
| 20260505215119 | 63 | 330 | 1.0 | 2.0 | 0.00 | 0.40 | 0.40 | 97 | 1007.6 |
| 20260505214617 | 63 | 47 | 2.0 | 3.0 | 0.07 | 0.40 | 0.40 | 97 | 1007.5 |
| 20260505214114 | 63 | 34 | 1.0 | 1.0 | 0.07 | 0.40 | 0.40 | 97 | 1007.7 |
| 20260505213611 | 63 | 299 | 2.0 | 3.0 | 0.00 | 0.39 | 0.39 | 97 | 1007.5 |